Volver al catálogo

OPS 4682 DEB

LostPO
NORAD 38366·DEBRIS·🇺🇸 United States

Lanzado Apr 3, 1965 desde Vandenberg Space Force Base

Loading…

Próximos Pases (próximas 24 horas)

TLE

ObsoletoSource: Space-Track

Época: Jul 16, 2013, 09:57 UTC

1 38366U 65027BT  13197.41517295 +.00000037 +00000-0 +10000-3 0  9995
2 38366 090.2768 245.2462 0024049 206.5052 156.2703 12.98162498502476

Sigue OPS 4682 DEB en tiempo real con AllMySat

Download on the App Store